Location: Commenchon
(49.6411°N, 3.1571°E)
Time: 13:13:06
(UTC+00:00)

USA 290 - Pass Details

Date: 15 May 2026
Orbit: 396 x 415 km, 73.6° (Epoch: 30 October)

Event Time Altitude Azimuth Distance (km) Brightness Sun altitude
Exits shadow 21:18:07 30° 163° (SSE) 742 2.9 -14.1°
Maximum altitude 21:19:16 45° 109° (ESE) 543 2.4 -14.2°
Drops below altitude 10° 21:22:17 10° 35° (NE) 1,435 5.2 -14.5°
Sets 21:24:21 0° 29° (NNE) 2,295 6.4 -14.7°
